Location: Houston
(29.7631°N, 95.3631°W)
Time: 19:33:56
(UTC-06:00)

DX 1 - Pass Details

Date: 19 November 2019
Orbit: 619 x 631 km, 98.4° (Epoch: 10 December)

Event Time Altitude Azimuth Distance (km) Brightness Sun altitude
Rises 17:54:25 0° 354° (N) 2,896 ? -7.0°
Reaches altitude 10° 17:57:01 10° 338° (NNW) 1,988 ? -7.5°
Maximum altitude 18:00:16 21° 290° (WNW) 1,395 ? -8.2°
Drops below altitude 10° 18:03:31 10° 240° (WSW) 1,984 ? -8.9°
Sets 18:06:06 0° 225° (SW) 2,889 ? -9.4°
